sat.trackr.live / text

‹ back to catalog

STARLINK-37522

NORAD 69446 · 2026-127D

PAYLOAD ACTIVE UNKNOWN

§ Identity

Operator
Country
US
Launch date
2026-06-08
Launch site
AFETR
Launch vehicle
Mass (kg)
RCS (m²)

Purposes: comms

External: N2YO · Heavens-Above · Gunter

§ Orbital elements

Epoch: 2026-09-20T02:49:20.950176Z

Period
93.85 min
Inclination
53.1598°
Eccentricity
0.0001636
Mean motion
15.34398689 rev/d
Perigee alt
461.6 km
Apogee alt
463.8 km
Semi-major
6,840.8 km
B*
2.4876e-4
RAAN
167.4903°
Arg perigee
88.4642°
Mean anomaly
271.6548°
Rev number
1,613

§ Raw data

STARLINK-375221 69446U 26127D   26263.11760359  .00008037  00000+0  24876-3 0  99952 69446  53.1598 167.4903 0001636  88.4642 271.6548 15.34398689 16130

JSON: /api/v1/satellites/69446 · /tle

For live sub-satellite position, see the globe view (requires WebGL).

§ Visibility from observer

Set your observer location to see the next 7 days of passes ≥ 10°. The values pass through the URL so the page stays shareable.

No JS? Fill the form by hand. The geolocation button needs JavaScript.